| time (UTC) | temp F | wind direction | speed knots | gust knots | rain 1hr in | rain 24hr in | rain mn in | humidity % | barometer mb |
| 20260502122840 | 95 | 163 | 0.9 | 3.5 | 0.00 | 0.00 | 0.00 | 12 | 1018.1 |
| 20260502112634 | 92 | 135 | 4.3 | 4.3 | 0.00 | 0.00 | 0.00 | 14 | 1019.0 |
| 20260502112241 | 92 | 144 | 1.7 | 4.3 | 0.00 | 0.00 | 0.00 | 14 | 1019.0 |
| 20260502102035 | 86 | 143 | 3.5 | 6.1 | 0.00 | 0.00 | 0.00 | 19 | 1019.7 |
| 20260502101642 | 86 | 180 | 0.0 | 2.6 | 0.00 | 0.00 | 0.00 | 20 | 1019.8 |
| 20260502091435 | 82 | 337 | 2.6 | 4.3 | 0.00 | 0.00 | 0.00 | 27 | 1020.5 |
| 20260502070237 | 66 | 315 | 0.0 | 0.0 | 0.00 | 0.00 | 0.00 | 55 | 1022.0 |
| 20260502055638 | 47 | 180 | 0.0 | 0.0 | 0.00 | 0.00 | 0.00 | 94 | 1022.4 |
| 20260502045431 | 43 | 187 | 0.0 | 1.7 | 0.00 | 0.00 | 0.00 | 100 | 1022.3 |
| 20260502045039 | 43 | 180 | 0.9 | 1.7 | 0.00 | 0.00 | 0.00 | 100 | 1022.3 |
| 20260502034832 | 42 | 246 | 0.9 | 1.7 | 0.00 | 0.00 | 0.00 | 97 | 1022.1 |
| 20260502034439 | 42 | 180 | 0.9 | 1.7 | 0.00 | 0.00 | 0.00 | 96 | 1022.2 |
| 20260502024233 | 43 | 180 | 0.0 | 1.7 | 0.00 | 0.00 | 0.00 | 89 | 1022.3 |
| 20260502013727 | 44 | 337 | 0.9 | 1.7 | 0.00 | 0.00 | 0.00 | 85 | 1022.4 |
| 20260502013634 | 44 | 337 | 0.9 | 1.7 | 0.00 | 0.00 | 0.00 | 85 | 1022.4 |
| 20260502003034 | 46 | 337 | 0.0 | 0.9 | 0.00 | 0.00 | 0.00 | 78 | 1022.7 |
| 20260501232435 | 48 | 162 | 0.0 | 0.0 | 0.00 | 0.00 | 0.00 | 72 | 1022.9 |
| 20260501222229 | 50 | 181 | 1.7 | 1.7 | 0.00 | 0.00 | 0.00 | 66 | 1022.9 |
| 20260501221837 | 50 | 181 | 0.0 | 0.0 | 0.00 | 0.00 | 0.00 | 66 | 1022.8 |
| 20260501211630 | 52 | 337 | 0.0 | 1.7 | 0.00 | 0.00 | 0.00 | 58 | 1022.7 |
| 20260501211237 | 52 | 270 | 0.9 | 1.7 | 0.00 | 0.00 | 0.00 | 58 | 1022.8 |
| 20260501201031 | 56 | 180 | 0.0 | 1.7 | 0.00 | 0.00 | 0.00 | 49 | 1022.8 |
| 20260501190432 | 61 | 9 | 0.0 | 0.0 | 0.00 | 0.00 | 0.00 | 39 | 1022.4 |
| 20260501175832 | 71 | 180 | 0.0 | 1.7 | 0.00 | 0.00 | 0.00 | 30 | 1021.9 |
| 20260501165233 | 75 | 337 | 1.7 | 5.2 | 0.00 | 0.00 | 0.00 | 27 | 1021.8 |